CST,Max TemperatureF,Mean TemperatureF,Min TemperatureF,Max Dew PointF,MeanDew PointF,Min DewpointF,Max Humidity, Mean Humidity, Min Humidity, Max Sea Level PressureIn, Mean Sea Level PressureIn, Min Sea Level PressureIn, Max VisibilityMiles, Mean VisibilityMiles, Min VisibilityMiles, Max Wind SpeedMPH, Mean Wind SpeedMPH, Max Gust SpeedMPH,PrecipitationIn, CloudCover, Events, WindDirDegrees
2013-1-1,51,45,39,50,46,37,100,96,82,30.15,30.04,29.99,10,6,2,12,4,20,1.65,8,Rain,330
2013-1-2,39,36,33,37,33,32,100,92,87,30.25,30.20,30.12,10,8,5,8,4,,0.00,7,,333
2013-1-3,44,37,30,30,27,21,93,79,39,30.42,30.34,30.24,10,10,7,7,2,,0.00,0,,332
2013-1-4,50,38,26,36,30,27,100,76,40,30.49,30.42,30.38,10,10,10,6,1,,0.00,2,,7
2013-1-5,42,36,30,39,35,30,100,91,70,30.43,30.35,30.28,10,8,3,5,0,,0.17,6,Rain,168
2013-1-6,50,41,32,41,37,32,100,91,62,30.36,30.29,30.25,10,7,0,6,1,,0.00,5,Fog,313
2013-1-7,51,40,28,34,31,27,100,83,44,30.40,30.31,30.23,10,9,3,6,3,,0.00,0,,21
2013-1-8,59,44,30,50,39,28,100,79,55,30.30,30.23,30.18,10,10,10,9,2,,0.00,2,Rain,117
2013-1-9,55,53,51,55,52,50,100,96,88,30.32,30.27,30.23,10,5,2,9,4,,0.33,8,Rain,81
2013-1-10,66,60,55,63,61,55,100,94,88,30.27,30.13,29.96,10,5,1,21,9,34,0.23,7,Rain,136
2013-1-11,66,62,59,63,61,59,100,95,83,30.11,30.05,30.02,10,7,1,10,5,22,0.02,8,Rain,171
2013-1-12,77,70,62,64,64,63,100,85,65,30.04,29.96,29.87,10,10,5,14,8,21,0.07,7,Rain-Thunderstorm,165
2013-1-13,73,56,39,64,55,36,100,86,73,30.18,29.96,29.83,10,9,2,18,10,28,0.68,7,Rain,192
2013-1-14,39,36,32,36,33,32,100,94,87,30.27,30.20,30.16,10,7,0,12,7,18,1.38,8,Rain-Snow,360
2013-1-15,35,34,33,34,33,32,100,97,93,30.17,30.08,30.01,10,4,1,12,5,,1.47,8,Rain-Snow-Thunderstorm,353
2013-1-16,35,34,33,34,33,32,100,95,93,30.15,30.08,30.03,10,5,2,8,4,,0.47,8,Rain,331
2013-1-17,46,39,32,36,33,28,100,91,66,30.44,30.20,30.04,10,6,0,14,7,26,0.29,5,Rain-Snow,311
2013-1-18,53,40,28,36,32,27,100,85,44,30.58,30.48,30.40,10,8,1,6,1,,0.00,0,,36
2013-1-19,59,42,26,37,32,27,100,82,36,30.40,30.31,30.23,10,10,10,7,1,,0.00,0,,189
2013-1-20,62,46,30,43,36,30,100,81,39,30.26,30.20,30.14,10,10,5,6,0,,0.00,0,,345
2013-1-21,50,40,30,34,29,23,100,73,40,30.30,30.22,30.14,10,9,5,14,3,20,0.00,0,,2
2013-1-22,46,36,26,32,24,21,87,65,37,30.42,30.35,30.29,10,10,10,7,2,,0.00,2,,54
2013-1-23,60,46,32,46,37,30,100,79,52,30.38,30.29,30.22,10,10,7,7,1,,0.00,6,Rain,171
2013-1-24,55,48,41,50,38,30,100,65,47,30.35,30.27,30.21,10,10,10,9,5,16,0.00,7,,32
2013-1-25,64,53,42,55,45,30,100,81,53,30.23,30.16,30.09,10,8,2,13,6,23,0.08,7,Rain,211
2013-1-26,53,44,35,46,39,36,100,83,54,30.33,30.27,30.22,10,8,2,8,4,,0.00,6,Rain,34
2013-1-27,66,56,46,54,46,41,93,75,59,30.32,30.25,30.21,10,10,10,10,4,,0.00,5,,131
2013-1-28,69,60,51,59,54,50,100,87,56,30.28,30.20,30.13,10,7,0,10,6,,0.00,5,Fog,151
2013-1-29,77,65,53,63,60,54,100,82,54,30.14,29.94,29.70,10,7,1,18,9,32,0.00,6,,161
2013-1-30,71,54,37,64,46,28,100,80,54,30.07,29.75,29.59,10,9,2,21,10,36,0.98,7,Rain-Thunderstorm,248
2013-1-31,55,42,30,32,29,27,93,66,33,30.24,30.17,30.07,10,10,10,13,4,20,0.00,0,,245